Showing default

OPS 7218 (TRANSIT 16), 2807

Orbit data source: Space-Track

OPS 7218 (TRANSIT 16), 2807 is a payload satellite owned by USN NAVAIR (US) in LEO that was launched on Thu, 18 May 1967 UTC via an SCOUT A launch vehicle from the Air Force Western Test Range (AFWTR). Payload-class satellites include a variety of spacecraft equipped with specific instruments for various scientific and technological missions. These include communications satellites like Starlink; space stations such as the ISS; scientific satellites like the Hubble; Earth observation satellites from companies like Planet Labs, Umbra, and HawkEye 360; GPS; miniature CubeSats for education and research; and military/defense satellites.

Loading next visibility...
Identifier
2807, 1967-048A
Orbit
LEO
Country
Flag of USUS
Related business
Manufacturer
APL
Mission
Defense Navigation
Bus & Motor
TRANSIT 5, Unknown motor
Mass
~50 kg wet, ~50 kg dry
Launch date (UTC)
1967-05-18 (58 years ago)
Launch vehicle
SCOUT A
Launch site
Air Force Western Test Range (AFWTR)
Object type
Payload
Rocket body
Debris
Shape & HBR
Oct Cyl + 4 Pan + 1 Rod, Unknown HBR
Radar Cross Section
7.565 m², Large (>1 m²)

Expand to show TLE details & history
Last TLE update: 19 hours ago

TLE from 19 hours ago
0 OPS 7218 (TRANSIT 16)
1 02807U 67048A   25260.21937523  .00000086  00000-0  11710-3 0  9996
2 02807  89.6819 356.8410 0020196  12.2668  15.6206 13.50695208871083
Epoch: 2025-09-17T05:15Z
TLE epoch observation values (Epoch: 2025-09-17T05:15:54.019Z)
Latitude
27.98872°
Longitude
-78.36436°
Altitude
1,058.713 km
Speed
7.332 km/s
True Right ascension
23h 48m 02s
True Declination
27° 51' 08"
Sunlit
Object was in full shadow at epoch
Visualization orbit readout
Latitude
Unknown
Longitude
Unknown
Altitude
Unknown
Speed
Unknown
Apparent Right ascension
Unknown
Apparent Declination
Unknown
Sunlit
N/A
Visualization observer readout
Local Sidereal Time
16:38:13
Azimuth
Unknown
Elevation
Unknown
Doppler factor
Unknown
Orbital elements
Apogee altitude
1,081.787 km
Perigee altitude
1,051.715 km
Semi-major axis
7,444.888 km
Eccentricity
0.00202
Inclination
89.6819°
RAAN
356.841°
Arg. of periapsis
12.2668°
True anomaly
15.68307°
Mean anomaly
15.6206°
Eccentric anomaly
15.65182°
Mean motion
3.37875 °/min
Orbital period
106.55 mins
BSTAR
0.0001171
Loading maneuver chart data...
Computing Atmospheric mass density...
Loading historical data...
Loading historical data...
Loading historical data...
Loading historical data...
Loading historical data...
Loading historical data...
Loading historical data...

Documentation

Showing up to 5 results
|